TimeEDT,TemperatureF,Dew PointF,Humidity,Sea Level PressureIn,VisibilityMPH,Wind Direction,Wind SpeedMPH,Gust SpeedMPH,PrecipitationIn,Events,Conditions,WindDirDegrees,DateUTC
12:15 AM,30.0,24.4,80,30.20,10.0,East,4.6,-,N/A,,Clear,80,2014-04-04 04:15:00
12:35 AM,30.9,24.4,77,30.19,10.0,East,3.5,-,N/A,,Clear,90,2014-04-04 04:35:00
12:55 AM,30.9,23.9,75,30.19,10.0,East,3.5,-,N/A,,Clear,90,2014-04-04 04:55:00
1:15 AM,30.9,23.9,75,30.18,10.0,East,4.6,-,N/A,,Clear,80,2014-04-04 05:15:00
1:35 AM,30.9,23.4,74,30.18,10.0,East,3.5,-,N/A,,Clear,90,2014-04-04 05:35:00
1:55 AM,28.4,22.1,77,30.17,10.0,Calm,Calm,-,N/A,,Clear,0,2014-04-04 05:55:00
2:15 AM,28.4,22.3,78,30.17,10.0,Calm,Calm,-,N/A,,Clear,0,2014-04-04 06:15:00
2:35 AM,28.4,22.8,80,30.17,10.0,East,3.5,-,N/A,,Clear,80,2014-04-04 06:35:00
2:55 AM,27.7,21.6,78,30.16,10.0,Calm,Calm,-,N/A,,Clear,0,2014-04-04 06:55:00
3:15 AM,27.7,22.3,80,30.16,10.0,ENE,3.5,-,N/A,,Clear,60,2014-04-04 07:15:00
3:35 AM,28.4,22.3,78,30.15,10.0,ENE,4.6,-,N/A,,Clear,60,2014-04-04 07:35:00
3:55 AM,28.4,21.2,74,30.14,10.0,East,4.6,-,N/A,,Clear,80,2014-04-04 07:55:00
4:15 AM,28.4,21.2,74,30.13,10.0,East,3.5,-,N/A,,Clear,80,2014-04-04 08:15:00
4:35 AM,28.4,21.6,76,30.13,10.0,ENE,3.5,-,N/A,,Clear,70,2014-04-04 08:35:00
4:55 AM,28.4,20.8,73,30.13,10.0,Calm,Calm,-,N/A,,Clear,0,2014-04-04 08:55:00
5:15 AM,25.5,19.6,78,30.13,10.0,SE,3.5,-,N/A,,Clear,130,2014-04-04 09:15:00
5:35 AM,25.7,20.3,80,30.13,10.0,SE,3.5,-,N/A,,Clear,130,2014-04-04 09:35:00
5:55 AM,25.7,20.3,80,30.13,10.0,ENE,4.6,-,N/A,,Clear,70,2014-04-04 09:55:00
6:15 AM,25.7,20.3,80,30.13,10.0,ENE,3.5,-,N/A,,Clear,60,2014-04-04 10:15:00
6:35 AM,25.7,19.4,77,30.12,10.0,ENE,3.5,-,N/A,,Clear,70,2014-04-04 10:35:00
6:55 AM,28.4,21.2,74,30.13,10.0,Calm,Calm,-,N/A,,Clear,0,2014-04-04 10:55:00
7:15 AM,28.4,20.3,72,30.13,10.0,East,3.5,-,N/A,,Clear,90,2014-04-04 11:15:00
7:35 AM,30.9,22.5,71,30.13,10.0,Calm,Calm,-,N/A,,Clear,0,2014-04-04 11:35:00
7:55 AM,30.9,21.0,67,30.13,10.0,Calm,Calm,-,N/A,,Clear,0,2014-04-04 11:55:00
8:15 AM,33.1,21.9,64,30.12,10.0,East,5.8,-,N/A,,Clear,80,2014-04-04 12:15:00
8:35 AM,35.4,22.8,60,30.12,10.0,East,4.6,-,N/A,,Clear,80,2014-04-04 12:35:00
8:55 AM,36.3,20.3,52,30.12,10.0,Calm,Calm,-,N/A,,Clear,0,2014-04-04 12:55:00
9:15 AM,38.3,21.2,50,30.10,10.0,ESE,4.6,-,N/A,,Clear,110,2014-04-04 13:15:00
9:35 AM,39.6,21.4,48,30.10,10.0,ESE,5.8,-,N/A,,Clear,110,2014-04-04 13:35:00
9:55 AM,41.2,21.4,45,30.08,10.0,East,3.5,-,N/A,,Clear,100,2014-04-04 13:55:00
10:15 AM,43.3,21.6,42,30.07,10.0,ESE,5.8,-,N/A,,Clear,110,2014-04-04 14:15:00
10:35 AM,43.9,20.8,40,30.07,10.0,SE,4.6,-,N/A,,Clear,140,2014-04-04 14:35:00
10:55 AM,44.6,20.3,38,30.06,10.0,ENE,5.8,-,N/A,,Clear,70,2014-04-04 14:55:00
11:15 AM,48.4,23.2,37,30.04,10.0,ESE,8.1,-,N/A,,Clear,120,2014-04-04 15:15:00
11:35 AM,48.4,21.9,35,30.02,10.0,East,4.6,-,N/A,,Clear,90,2014-04-04 15:35:00
11:55 AM,50.9,23.5,34,30.01,10.0,SSE,6.9,-,N/A,,Clear,150,2014-04-04 15:55:00
12:15 PM,50.9,24.6,36,30.01,10.0,SE,6.9,-,N/A,,Clear,130,2014-04-04 16:15:00
12:35 PM,50.9,22.8,33,30.01,10.0,ESE,6.9,-,N/A,,Clear,110,2014-04-04 16:35:00
12:55 PM,50.9,22.3,33,29.99,10.0,ESE,6.9,-,N/A,,Clear,110,2014-04-04 16:55:00
1:15 PM,53.4,24.3,32,29.97,10.0,ESE,6.9,-,N/A,,Clear,120,2014-04-04 17:15:00
1:35 PM,55.4,26.8,33,29.95,10.0,ESE,11.5,-,N/A,,Clear,110,2014-04-04 17:35:00
1:55 PM,54.0,24.3,32,29.95,10.0,SSE,8.1,-,N/A,,Clear,150,2014-04-04 17:55:00
2:15 PM,55.9,25.7,31,29.93,10.0,SE,9.2,-,N/A,,Clear,140,2014-04-04 18:15:00
2:35 PM,55.9,25.2,31,29.91,10.0,East,11.5,-,N/A,,Clear,100,2014-04-04 18:35:00
2:55 PM,55.9,24.6,30,29.90,10.0,SE,12.7,17.3,N/A,,Clear,130,2014-04-04 18:55:00
3:15 PM,53.8,23.9,31,29.89,10.0,ESE,10.4,16.1,N/A,,Scattered Clouds,120,2014-04-04 19:15:00
3:35 PM,55.9,26.2,32,29.87,10.0,ESE,11.5,-,N/A,,Scattered Clouds,110,2014-04-04 19:35:00
4:15 PM,53.6,24.6,33,29.83,10.0,SE,10.4,-,N/A,,Overcast,130,2014-04-04 20:15:00
4:55 PM,51.1,24.1,35,29.80,10.0,SE,9.2,-,N/A,,Overcast,130,2014-04-04 20:55:00
5:15 PM,50.9,25.5,37,29.79,10.0,SE,15.0,19.6,N/A,,Overcast,140,2014-04-04 21:15:00
5:35 PM,50.9,26.1,38,29.78,10.0,SE,10.4,15.0,N/A,,Overcast,140,2014-04-04 21:35:00
5:55 PM,50.9,28.0,41,29.77,10.0,SSE,13.8,18.4,N/A,,Overcast,150,2014-04-04 21:55:00
6:15 PM,48.4,29.3,48,29.76,10.0,SSE,10.4,-,N/A,Rain,Rain,150,2014-04-04 22:15:00
6:35 PM,44.1,31.8,62,29.76,7.0,SE,10.4,-,N/A,Rain,Light Rain,140,2014-04-04 22:35:00
6:55 PM,43.3,32.0,64,29.75,7.0,SE,9.2,16.1,N/A,Rain,Rain,130,2014-04-04 22:55:00
7:15 PM,43.3,32.9,67,29.74,7.0,SE,10.4,18.4,N/A,Rain,Rain,130,2014-04-04 23:15:00
7:35 PM,42.1,34.3,74,29.73,5.0,SE,9.2,-,N/A,Rain,Light Rain,130,2014-04-04 23:35:00
7:55 PM,41.0,34.5,78,29.72,5.0,SE,10.4,17.3,N/A,,Overcast,140,2014-04-04 23:55:00
8:15 PM,41.0,35.2,80,29.70,5.0,SE,13.8,-,N/A,,Overcast,130,2014-04-05 00:15:00
8:35 PM,41.0,35.6,81,29.70,4.0,SE,12.7,18.4,N/A,,Overcast,140,2014-04-05 00:35:00
8:55 PM,41.0,35.8,82,29.70,5.0,SE,16.1,-,N/A,,Overcast,140,2014-04-05 00:55:00
9:15 PM,41.0,36.1,83,29.73,4.0,SSE,9.2,-,N/A,,Overcast,160,2014-04-05 01:15:00
9:35 PM,41.0,36.0,82,29.72,10.0,SSE,16.1,-,N/A,,Overcast,160,2014-04-05 01:35:00
9:55 PM,41.0,34.9,79,29.73,10.0,SSE,17.3,23.0,N/A,,Overcast,160,2014-04-05 01:55:00
10:15 PM,41.0,33.8,76,29.71,10.0,SSE,23.0,29.9,N/A,,Overcast,160,2014-04-05 02:15:00
10:35 PM,41.0,33.3,74,29.71,7.0,South,12.7,28.8,N/A,,Overcast,170,2014-04-05 02:35:00
10:55 PM,41.0,34.2,77,29.71,7.0,SSE,17.3,25.3,N/A,,Overcast,160,2014-04-05 02:55:00
11:15 PM,41.0,34.5,78,29.71,10.0,SSE,19.6,24.2,N/A,,Overcast,160,2014-04-05 03:15:00
11:35 PM,41.0,34.0,76,29.70,10.0,SSE,18.4,26.5,N/A,,Overcast,150,2014-04-05 03:35:00
11:55 PM,41.0,33.3,74,29.69,10.0,South,18.4,24.2,N/A,,Overcast,170,2014-04-05 03:55:00